Roseburg, OR

5:52 AM PDT on June 28, 2017 (GMT -0700)
Roseburg Regional

Weather History for KRBG - March, 2014

Change the Weather History Date:

Saturday, March 1, 2014

  Actual Average Record
Temperature  
Mean Temperature 55 °F 47 °F  
Max Temperature 62 °F 56 °F 71 °F (1936)
Min Temperature 48 °F 38 °F 25 °F (1960)
Degree Days  
Heating Degree Days 10 18  
Month to date heating degree days 10 18  
Since 1 July heating degree days 2937 2887  
Cooling Degree Days 0 0  
Month to date cooling degree days 0 0  
Year to date cooling degree days 0 0  
Growing Degree Days 4 (Base 50)    
Moisture  
Dew Point 47 °F    
Average Humidity 77    
Maximum Humidity 93    
Minimum Humidity 60    
Precipitation  
Precipitation 0.08 in 0.10 in 1.73 in (1972)
Month to date precipitation 0.08 0.10  
Year to date precipitation 7.53 9.14  
Sea Level Pressure  
Sea Level Pressure 29.65 in    
Wind  
Wind Speed 2 mph (North)    
Max Wind Speed 8 mph    
Max Gust Speed 10 mph    
Visibility 8 miles    
Events Rain    
T = Trace of Precipitation, MM = Missing Value Source: NWS Daily Summary

Daily Weather History Graph

Daily Weather History Graph

Search for Another Location

Airport or City:

Trip Planner

Search our weather history database for the weather conditions in past years. The results will help you decide how hot, cold, wet, or windy it might be!

Date:

Astronomy

Mar. 01, 2014 Rise Set
Actual Time 6:49 AM PST 6:02 PM PST
Civil Twilight 6:20 AM PST 6:31 PM PST
Nautical Twilight 5:47 AM PST 7:04 PM PST
Astronomical Twilight 5:14 AM PST 7:37 PM PST
Moon 6:45 AM PST (3/1) 6:59 PM PST (3/1)
Length of Visible Light 12h 10m
Length of Day
11h 13m
New Moon, 0% of the Moon is Illuminated
Mar 1
New Moon
Mar 8
First Quarter
Mar 16
Full
Mar 23
Last Quarter
Mar 30
New

Hourly Weather History & Observations

Time (PST) Temp. Dew Point Humidity Pressure Visibility Wind Dir Wind Speed Gust Speed Precip Events Conditions
12:53 AM 48.0 °F 45.0 °F 89% 29.51 in 10.0 mi Calm Calm - N/A   Overcast
1:53 AM 48.0 °F 45.0 °F 89% 29.53 in 10.0 mi Calm Calm - 0.01 in   Overcast
2:45 AM 48.0 °F 45.0 °F 89% 29.54 in 6.0 mi Calm Calm - 0.02 in Rain Light Rain
2:53 AM 48.0 °F 45.0 °F 89% 29.55 in 6.0 mi Calm Calm - 0.02 in   Overcast
3:53 AM 48.9 °F 46.0 °F 90% 29.56 in 10.0 mi North 3.5 mph - 0.00 in   Overcast
4:00 AM 48.9 °F 46.0 °F 90% 29.56 in 10.0 mi North 3.5 mph - N/A   Overcast
4:50 AM 48.2 °F 46.4 °F 93% 29.58 in 8.0 mi Calm Calm - N/A   Overcast
4:53 AM 48.9 °F 46.0 °F 90% 29.58 in 8.0 mi Calm Calm - N/A   Overcast
5:05 AM 48.9 °F 46.0 °F 90% 29.58 in 10.0 mi Calm Calm - N/A   Overcast
5:53 AM 48.0 °F 46.0 °F 93% 29.60 in 5.0 mi Calm Calm - N/A   Overcast
6:19 AM 48.9 °F 46.0 °F 90% 29.61 in 7.0 mi Calm Calm - N/A   Overcast
6:38 AM 48.9 °F 46.0 °F 90% 29.61 in 7.0 mi Calm Calm - N/A   Overcast
6:46 AM 48.9 °F 46.0 °F 90% 29.62 in 7.0 mi Calm Calm - N/A   Overcast
6:53 AM 48.9 °F 46.0 °F 90% 29.62 in 9.0 mi Calm Calm - 0.00 in Rain Light Rain
7:53 AM 48.9 °F 46.0 °F 90% 29.66 in 3.0 mi Calm Calm - 0.01 in Rain Light Rain
8:44 AM 48.9 °F 46.9 °F 93% 29.67 in 3.0 mi Calm Calm - 0.02 in Rain Light Rain
8:53 AM 48.9 °F 46.9 °F 93% 29.68 in 4.0 mi Calm Calm - 0.02 in Rain Light Rain
9:21 AM 50.0 °F 46.9 °F 89% 29.68 in 6.0 mi Calm Calm - 0.01 in Rain Light Rain
9:31 AM 50.0 °F 46.9 °F 89% 29.68 in 6.0 mi Calm Calm - 0.01 in Rain Light Rain
9:46 AM 51.1 °F 48.0 °F 89% 29.69 in 6.0 mi Calm Calm - 0.01 in Rain Light Rain
9:53 AM 51.1 °F 48.0 °F 89% 29.69 in 7.0 mi SSE 3.5 mph - 0.01 in Rain Light Rain
10:53 AM 55.0 °F 48.0 °F 77% 29.70 in 10.0 mi Calm Calm - 0.00 in   Overcast
11:53 AM 57.9 °F 48.0 °F 70% 29.69 in 10.0 mi Calm Calm - N/A   Overcast
12:53 PM 57.9 °F 46.9 °F 67% 29.68 in 10.0 mi WNW 3.5 mph - N/A   Mostly Cloudy
1:53 PM 60.1 °F 48.0 °F 64% 29.68 in 10.0 mi Variable 3.5 mph - N/A   Overcast
2:53 PM 61.0 °F 46.9 °F 60% 29.68 in 10.0 mi North 4.6 mph - N/A   Overcast
3:53 PM 60.1 °F 48.9 °F 67% 29.69 in 10.0 mi NNW 5.8 mph - 0.01 in   Mostly Cloudy
4:53 PM 57.9 °F 48.0 °F 70% 29.69 in 10.0 mi North 5.8 mph - 0.00 in   Scattered Clouds
5:53 PM 57.0 °F 48.9 °F 74% 29.70 in 10.0 mi North 3.5 mph - N/A   Mostly Cloudy
6:53 PM 55.0 °F 48.0 °F 77% 29.72 in 10.0 mi North 3.5 mph - N/A   Scattered Clouds
7:53 PM 53.1 °F 46.9 °F 80% 29.73 in 10.0 mi Calm Calm - N/A   Mostly Cloudy
8:53 PM 53.1 °F 46.9 °F 80% 29.73 in 10.0 mi Calm Calm - N/A   Overcast
9:53 PM 53.1 °F 48.9 °F 86% 29.75 in 9.0 mi Calm Calm - N/A   Overcast
10:53 PM 51.1 °F 46.9 °F 86% 29.75 in 10.0 mi Calm Calm - N/A   Overcast
11:53 PM 51.1 °F 46.9 °F 86% 29.77 in 10.0 mi Calm Calm - N/A   Overcast